Retour au catalogue

STARLINK-37630

ActifCommunicationsSSO
NORAD 69301·PAYLOAD·🇺🇸 United States

Lancé May 30, 2026 depuis Vandenberg Space Force Base

Loading…

Prochains Passages (prochaines 24 heures)

TLE

FraisSource: CelesTrak SupGP

Époque: Sep 15, 2026, 04:17 UTC

1 69301C 26119F   26258.17895833 -.00053219  00000+0 -16522-2 0  2582
2 69301  97.2825 282.9549 0001064  94.6319 336.8878 15.33463145    15

Suivez STARLINK-37630 en temps réel avec AllMySat

Download on the App Store